Lattakia, Syria

3:48 AM EEST on September 24, 2017 (GMT +0300)
Bassel Al-Assad International

Weather History for OSLK - January, 2013

Change the Weather History Date:

Wednesday, January 16, 2013

  Actual Average Record
Temperature  
Mean Temperature 57 °F -  
Max Temperature 66 °F - - ()
Min Temperature 48 °F - - ()
Degree Days  
Heating Degree Days 8    
Growing Degree Days 7 (Base 50)    
Moisture  
Dew Point 34 °F    
Average Humidity 44    
Maximum Humidity 62    
Minimum Humidity 25    
Precipitation  
Precipitation 0.00 in - - ()
Sea Level Pressure  
Sea Level Pressure 30.18 in    
Wind  
Wind Speed 6 mph ()    
Max Wind Speed 14 mph    
Max Gust Speed -    
Visibility 9.0 miles    
Events      
T = Trace of Precipitation, MM = Missing Value Source: Averaged Metar Reports

Daily Weather History Graph

Daily Weather History Graph

Search for Another Location

Airport or City:

Trip Planner

Search our weather history database for the weather conditions in past years. The results will help you decide how hot, cold, wet, or windy it might be!

Date:

Astronomy

Jan. 16, 2013 Rise Set
Actual Time 6:45 AM EET 4:48 PM EET
Civil Twilight 6:17 AM EET 5:15 PM EET
Nautical Twilight 5:46 AM EET 5:47 PM EET
Astronomical Twilight 5:15 AM EET 6:17 PM EET
Moon 9:23 AM EET (1/16) 10:05 PM EET (1/16)
Length of Visible Light 10h 58m
Length of Day
10h 02m
Waxing Crescent, 25% of the Moon is Illuminated
Jan 16
Waxing Crescent
Jan 19
First Quarter
Jan 27
Full
Feb 3
Last Quarter
Feb 10
New

Hourly Weather History & Observations

Time (EET) Temp. Windchill Dew Point Humidity Pressure Visibility Wind Dir Wind Speed Gust Speed Precip Events Conditions
12:00 AM 48.2 °F - 35.6 °F 62% 30.27 in - ENE 6.9 mph - N/A   Clear
2:00 AM 50 °F - 36 °F 47% 30.25 in 9 mi NNE 4.5 mph - -  
2:00 AM 46.4 °F 42.9 °F 33.8 °F 62% 30.27 in - ENE 6.9 mph - N/A   Clear
7:00 AM 48.2 °F - 28.4 °F 46% 30.24 in - East 5.8 mph - N/A   Clear
8:00 AM 49 °F - 34 °F 44% 30.25 in 9 mi NE 4.5 mph - -  
8:00 AM 50.0 °F - 33.8 °F 54% 30.27 in - North 10.4 mph - N/A   Clear
9:00 AM 53.6 °F - 35.6 °F 51% 30.27 in - North 9.2 mph - N/A   Clear
10:00 AM 59.0 °F - 37.4 °F 45% 30.24 in - East 13.8 mph - N/A   Clear
11:00 AM 64.4 °F - 33.8 °F 32% 30.21 in - ESE 9.2 mph - N/A   Clear
12:00 PM 66.2 °F - 33.8 °F 30% 30.18 in - South 6.9 mph - N/A   Clear
1:00 PM 66.2 °F - 35.6 °F 32% 30.15 in - WSW 4.6 mph - N/A   Clear
2:00 PM 62 °F - 35 °F 25% 30.15 in 9 mi North 6.7 mph - -   Clear
2:00 PM 64.4 °F - 35.6 °F 34% 30.15 in - ESE 6.9 mph - N/A   Clear
3:00 PM 64.4 °F - 30.2 °F 28% 30.15 in - ESE 9.2 mph - N/A   Clear
4:00 PM 60.8 °F - 32.0 °F 34% 30.12 in - ESE 11.5 mph - N/A   Clear
5:00 PM 59.0 °F - 33.8 °F 39% 30.12 in - ESE 13.8 mph - N/A   Clear
6:00 PM 55.4 °F - 33.8 °F 44% 30.12 in - ESE 4.6 mph - N/A   Clear
7:00 PM 53.6 °F - 33.8 °F 47% 30.12 in - SW 4.6 mph - N/A   Clear
8:00 PM 55.4 °F - 32.0 °F 41% 30.12 in - WSW 4.6 mph - N/A   Clear
9:00 PM 53.6 °F - 37.4 °F 54% 30.09 in - NNW 4.6 mph - N/A   Clear
10:00 PM 51.8 °F - 35.6 °F 54% 30.09 in - NNE 4.6 mph - N/A   Clear
11:00 PM 50.0 °F - 35.6 °F 58% 30.09 in - NNE 4.6 mph - N/A   Clear